SES-5

Last updated on Fri Feb 07 2025 00:02:42 GMT+0000 (Coordinated Universal Time)

1 38652U 12036A 25037.44905794 .00000032 00000+0 00000+0 0 9998 2 38652 0.0550 294.1511 0001993 14.9795 354.3024 1.00270501 46092
UTC large
Height (km)
Speed (km/s)
/
Latitude / Longitude
Inclination (degrees)
Orbital Period (minutes)
Azimuth
Elevation
Range (km)
Doppler Factor

Next 0 passes for location: London (51.5072 / 0.1276)

Sorry there are no passes over London.